Regional Weather Roundup
Issued by NWS Midland/Odessa, TX

Skip options and go directly to product.
Home | Oldest Version | Previous Version | Current Version | All | Text Only | Save Text | Print | Product List | Glossary Off

Skip product version selection by date and time.   

361
ASUS44 KMAF 260210
RWRMAF
MIDLAND AREA WEATHER ROUNDUP
NATIONAL WEATHER SERVICE MIDLAND TX
900 PM CDT SAT JUN 25 2016

...IN SOUTHWEST TEXAS AND SOUTHEAST NEW MEXICO...

CITY           SKY/WX    TMP DP  RH WIND       PRES   REMARKS
ALPINE         PTCLDY    78  53  41 S7        30.13S
ANDREWS        FAIR      86  58  38 SE13G21   30.01R
ARTESIA        CLOUDY    81  64  57 N6        29.99R
BIG SPRING     PTCLDY    83  58  42 SE13      30.01R
CARLSBAD       MOCLDY    89  53  29 N15       29.95R
DRYDEN           N/A     88  62  41 SE17G24   29.94R
FORT STOCKTON  MOCLDY    86  60  41 SE13G31   29.97R
GUAD PASS      CLOUDY    75  51  43 W12         N/A
HOBBS          PTCLDY    86  54  32 SE13      30.02R
MARFA          PTCLDY   N/A N/A N/A E8        30.12R
MIDLAND AIRPK  CLEAR     88  58  36 SE14G25   30.00R
MIDLAND INTL   CLEAR     88  60  38 SE17      29.98R
ODESSA         CLEAR     88  60  38 S15       29.99R
PECOS          CLOUDY    80  62  54 SE10      29.92R
PRESIDIO       FAIR      85  58  38 E14       29.96R
SEMINOLE       CLEAR     87  55  34 SE13      30.03R
SNYDER           N/A     82  68  63 SE8       30.00F
WINK           PTCLDY    86  56  35 SE10      29.94R
$$
...OTHER STATIONS IN TEXAS...

CITY           SKY/WX    TMP DP  RH WIND       PRES   REMARKS
ABILENE        MOCLDY    81  69  67 SE15G28   30.00S
AMARILLO       CLEAR     85  57  38 S23       30.01R
AUSTIN         CLOUDY    78  76  93 W3        30.02R
BROWNSVILLE    CLOUDY    83  76  79 SE13      29.98R
CORPUS CHRISTI MOCLDY    83  77  82 SE10      29.99R
DALLAS FTW     CLOUDY    87  70  56 S14       29.99R
DEL RIO        CLOUDY    78  73  84 E15G23    29.92S
EL PASO        CLOUDY    87  46  24 SE13      29.97S
HOUSTON INT    MOCLDY    82  74  76 S7        30.02S
LUBBOCK        MOCLDY    81  63  54 S20       30.01R
SAN ANGELO     CLEAR     85  67  54 S15G24    29.97S
SAN ANTONIO    CLOUDY    78  74  87 VRB5      30.02R
WACO           CLOUDY    82  72  71 SW7       30.01S
WICHITA FALLS  NOT AVBL
$$
...OTHER LOCATIONS IN NEW MEXICO...

CITY           SKY/WX    TMP DP  RH WIND       PRES   REMARKS
ALAMAGORDO     PTCLDY    82  50  32 SW6       30.01R
ALBUQUERQUE    CLOUDY    84  45  25 E9        30.08R
CANNON AFB     CLOUDY    79  54  41 W12       30.06R
CLOVIS         CLEAR     79  54  41 W12G17    30.07R
HOLLOMAN AFB   MOCLDY    87  49  27 S9        29.98R
ROSWELL        CLOUDY    84  51  31 W5        29.99S
RUIDOSO          N/A     73  41  31 SE6       30.26R
SANTA FE       CLOUDY    73  50  44 SE20G30   30.18R
TRUTH OR CONSE CLOUDY    79  54  41 E16G24    30.08R
TUCUMCARI      TSTM      68  62  81 E8        30.09R
$$

USA.gov is the U.S. government's official web portal to all federal, state and local government web resources and services.